Manistique, MI

8:13 AM EDT on August 23, 2017 (GMT -0400)
Schoolcraft County

Weather History for KISQ - October, 2011

Change the Weather History Date:

Sunday, October 9, 2011

  Actual Average Record
Temperature  
Mean Temperature 60 °F -  
Max Temperature 64 °F 54 °F 69 °F (1960)
Min Temperature 55 °F 37 °F 24 °F (1989)
Degree Days  
Heating Degree Days 6    
Growing Degree Days 10 (Base 50)    
Moisture  
Dew Point 54 °F    
Average Humidity 81    
Maximum Humidity 94    
Minimum Humidity 68    
Precipitation  
Precipitation 0.00 in - - ()
Sea Level Pressure  
Sea Level Pressure 30.27 in    
Wind  
Wind Speed 8 mph (SSW)    
Max Wind Speed 12 mph    
Max Gust Speed 17 mph    
Visibility 9 miles    
Events      
Averages and records for this station are not official NWS values.
T = Trace of Precipitation, MM = Missing Value Source: NWS Daily Summary

Daily Weather History Graph

Daily Weather History Graph

Search for Another Location

Airport or City:

Trip Planner

Search our weather history database for the weather conditions in past years. The results will help you decide how hot, cold, wet, or windy it might be!

Date:

Astronomy

Oct. 09, 2011 Rise Set
Actual Time 7:53 AM EDT 7:10 PM EDT
Civil Twilight 7:23 AM EDT 7:39 PM EDT
Nautical Twilight 6:48 AM EDT 8:14 PM EDT
Astronomical Twilight 6:13 AM EDT 8:49 PM EDT
Moon 5:50 PM EDT (10/9) 5:32 AM EDT (10/9)
Length of Visible Light 12h 16m
Length of Day
11h 16m
Waxing Gibbous, 95% of the Moon is Illuminated
Oct 9
Waxing Gibbous
Oct 11
Full
Oct 19
Last Quarter
Oct 26
New
Nov 2
First Quarter

Hourly Weather History & Observations

Time (EDT) Temp. Dew Point Humidity Pressure Visibility Wind Dir Wind Speed Gust Speed Precip Events Conditions
12:14 AM 59.0 °F 55.4 °F 88% 30.22 in 10.0 mi SW 8.1 mph - N/A   Clear
12:34 AM 59.0 °F 53.6 °F 82% 30.23 in 10.0 mi SSW 9.2 mph - N/A   Clear
12:54 AM 59.0 °F 55.4 °F 88% 30.23 in 10.0 mi SSW 10.4 mph - N/A   Clear
1:14 AM 59.0 °F 55.4 °F 88% 30.23 in 10.0 mi SSW 8.1 mph - N/A   Clear
1:34 AM 59.0 °F 53.6 °F 82% 30.24 in 10.0 mi SSW 9.2 mph - N/A   Clear
1:55 AM 59.0 °F 55.4 °F 88% 30.24 in 10.0 mi SSW 8.1 mph - N/A   Clear
2:14 AM 57.2 °F 53.6 °F 88% 30.24 in 10.0 mi SSW 5.8 mph - N/A   Clear
2:34 AM 57.2 °F 53.6 °F 88% 30.24 in 7.0 mi South 5.8 mph - N/A   Clear
2:55 AM 57.2 °F 53.6 °F 88% 30.25 in 7.0 mi South 5.8 mph - N/A   Clear
3:14 AM 57.2 °F 53.6 °F 88% 30.26 in 7.0 mi South 5.8 mph - N/A   Clear
3:34 AM 57.2 °F 53.6 °F 88% 30.25 in 7.0 mi South 6.9 mph - N/A   Clear
4:14 AM 57.2 °F 53.6 °F 88% 30.26 in 7.0 mi South 6.9 mph - N/A   Clear
4:34 AM 57.2 °F 53.6 °F 88% 30.27 in 7.0 mi SSW 4.6 mph - N/A   Clear
5:14 AM 57.2 °F 53.6 °F 88% 30.27 in 7.0 mi South 6.9 mph - N/A   Clear
5:35 AM 57.2 °F 53.6 °F 88% 30.27 in 7.0 mi South 6.9 mph - N/A   Clear
5:55 AM 57.2 °F 53.6 °F 88% 30.27 in 7.0 mi South 8.1 mph - N/A   Clear
6:14 AM 57.2 °F 53.6 °F 88% 30.27 in 7.0 mi SSW 8.1 mph - N/A   Clear
6:35 AM 57.2 °F 53.6 °F 88% 30.28 in 7.0 mi South 6.9 mph - N/A   Clear
7:14 AM 57.2 °F 53.6 °F 88% 30.28 in 5.0 mi South 9.2 mph - N/A   Clear
7:34 AM 57.2 °F 53.6 °F 88% 30.28 in 5.0 mi SSW 6.9 mph - N/A   Clear
8:15 AM 55.4 °F 53.6 °F 94% 30.28 in 3.0 mi South 5.8 mph - N/A   Clear
8:54 AM 57.2 °F 53.6 °F 88% 30.30 in 5.0 mi SSW 8.1 mph - N/A   Clear
9:15 AM 57.2 °F 55.4 °F 94% 30.29 in 7.0 mi SSW 8.1 mph - N/A   Clear
9:34 AM 59.0 °F 55.4 °F 88% 30.29 in 7.0 mi SSW 6.9 mph - N/A   Clear
9:54 AM 60.8 °F 55.4 °F 82% 30.30 in 10.0 mi SSW 8.1 mph - N/A   Clear
10:15 AM 60.8 °F 55.4 °F 82% 30.30 in 10.0 mi SSW 6.9 mph - N/A   Clear
10:34 AM 62.6 °F 55.4 °F 77% 30.30 in 10.0 mi SSW 6.9 mph - N/A   Clear
10:55 AM 62.6 °F 55.4 °F 77% 30.30 in 10.0 mi SSW 5.8 mph - N/A   Clear
11:14 AM 62.6 °F 55.4 °F 77% 30.31 in 10.0 mi South 6.9 mph - N/A   Clear
11:34 AM 62.6 °F 55.4 °F 77% 30.31 in 10.0 mi SW 8.1 mph - N/A   Clear
11:55 AM 64.4 °F 55.4 °F 73% 30.31 in 10.0 mi SSW 9.2 mph - N/A   Clear
12:14 PM 62.6 °F 55.4 °F 77% 30.30 in 10.0 mi SSW 9.2 mph - N/A   Clear
12:35 PM 62.6 °F 55.4 °F 77% 30.31 in 10.0 mi SSW 10.4 mph - N/A   Clear
12:54 PM 64.4 °F 55.4 °F 73% 30.31 in 10.0 mi SSW 9.2 mph - N/A   Clear
1:14 PM 64.4 °F 55.4 °F 73% 30.30 in 10.0 mi SSW 11.5 mph - N/A   Clear
1:35 PM 64.4 °F 55.4 °F 73% 30.30 in 10.0 mi SSW 9.2 mph - N/A   Clear
1:54 PM 64.4 °F 55.4 °F 73% 30.29 in 10.0 mi SSW 8.1 mph - N/A   Clear
2:14 PM 64.4 °F 55.4 °F 73% 30.29 in 10.0 mi SSW 10.4 mph - N/A   Clear
2:35 PM 64.4 °F 55.4 °F 73% 30.28 in 10.0 mi SSW 10.4 mph - N/A   Clear
2:54 PM 64.4 °F 55.4 °F 73% 30.28 in 10.0 mi SSW 11.5 mph - N/A   Clear
3:14 PM 64.4 °F 55.4 °F 73% 30.28 in 10.0 mi SSW 10.4 mph 17.3 mph N/A   Clear
3:35 PM 64.4 °F 55.4 °F 73% 30.27 in 10.0 mi SSW 11.5 mph - N/A   Clear
4:14 PM 64.4 °F 55.4 °F 73% 30.27 in 10.0 mi SSW 9.2 mph - N/A   Clear
4:34 PM 64.4 °F 55.4 °F 73% 30.26 in 10.0 mi SSW 9.2 mph - N/A   Clear
4:54 PM 64.4 °F 53.6 °F 68% 30.26 in 10.0 mi SSW 9.2 mph - N/A   Clear
5:15 PM 62.6 °F 53.6 °F 72% 30.26 in 10.0 mi South 11.5 mph - N/A   Clear
5:34 PM 62.6 °F 53.6 °F 72% 30.27 in 10.0 mi South 8.1 mph - N/A   Clear
5:54 PM 62.6 °F 53.6 °F 72% 30.27 in 10.0 mi South 10.4 mph - N/A   Clear
6:15 PM 60.8 °F 53.6 °F 77% 30.26 in 10.0 mi SSW 9.2 mph - N/A   Clear
6:34 PM 60.8 °F 53.6 °F 77% 30.27 in 10.0 mi South 8.1 mph - N/A   Clear
6:54 PM 59.0 °F 53.6 °F 82% 30.27 in 10.0 mi SSW 5.8 mph - N/A   Clear
7:34 PM 57.2 °F 53.6 °F 88% 30.27 in 10.0 mi South 6.9 mph - N/A   Clear
7:54 PM 55.4 °F 51.8 °F 88% 30.27 in 10.0 mi SSE 5.8 mph - N/A   Clear
8:34 PM 55.4 °F 51.8 °F 88% 30.28 in 10.0 mi South 6.9 mph - N/A   Clear
8:54 PM 57.2 °F 51.8 °F 82% 30.27 in 10.0 mi South 8.1 mph - N/A   Clear
9:14 PM 57.2 °F 51.8 °F 82% 30.27 in 10.0 mi SSW 5.8 mph - N/A   Clear
9:34 PM 57.2 °F 51.8 °F 82% 30.28 in 10.0 mi SSW 4.6 mph - N/A   Clear
9:55 PM 55.4 °F 51.8 °F 88% 30.27 in 10.0 mi Calm Calm - N/A   Clear
10:14 PM 55.4 °F 51.8 °F 88% 30.27 in 10.0 mi SSW 3.5 mph - N/A   Clear
10:35 PM 51.8 °F 48.2 °F 88% 30.27 in 5.0 mi Calm Calm - N/A   Clear
10:54 PM 48.2 °F 46.4 °F 93% 30.28 in 2.5 mi Calm Calm - N/A   Clear
11:14 PM 50.0 °F 48.2 °F 94% 30.28 in 1.2 mi Calm Calm - N/A   Mist
11:35 PM 48.2 °F 46.4 °F 93% 30.28 in 1.0 mi Calm Calm - N/A   Mist
11:54 PM 46.4 °F 44.6 °F 93% 30.29 in 5.0 mi Calm Calm - N/A   Clear